Hourly Weather Rudyi Bairak

Today, 20 April, Tuesday

Time Temperature Precipitation Wind Pressure Humidity
00:00 +8°C° 0 mm 2 mps 743 mmHg 80%
01:00 +9°C° 0 mm 1 mps 743 mmHg 80%
02:00 +10°C° 0 mm 1 mps 742 mmHg 81%
03:00 +8°C° 0.1 mm 2 mps 742 mmHg 82%
04:00 +8°C° 0.1 mm 2 mps 741 mmHg 84%
05:00 +8°C° 0.1 mm 2 mps 741 mmHg 86%
06:00 +8°C° 0.1 mm 3 mps 741 mmHg 86%
07:00 +9°C° 0.1 mm 3 mps 740 mmHg 85%
08:00 +8°C° 0.1 mm 4 mps 740 mmHg 84%
09:00 +10°C° 0.2 mm 4 mps 740 mmHg 83%
10:00 +10°C° 0.2 mm 4 mps 739 mmHg 81%
11:00 +11°C° 0.2 mm 4 mps 739 mmHg 79%
12:00 +11°C° 0.7 mm 4 mps 738 mmHg 81%
13:00 +11°C° 0.7 mm 4 mps 737 mmHg 83%
14:00 +10°C° 0.7 mm 5 mps 737 mmHg 84%
15:00 +9°C° 2.2 mm 5 mps 736 mmHg 87%
16:00 +9°C° 2.2 mm 5 mps 735 mmHg 90%
17:00 +8°C° 2.2 mm 5 mps 735 mmHg 93%
18:00 +8°C° 1.5 mm 4 mps 735 mmHg 93%
19:00 +8°C° 1.5 mm 4 mps 735 mmHg 94%
20:00 +8°C° 1.5 mm 4 mps 735 mmHg 94%
21:00 +7°C° 0.2 mm 4 mps 735 mmHg 93%
22:00 +7°C° 0.2 mm 4 mps 736 mmHg 93%
23:00 +7°C° 0.2 mm 4 mps 736 mmHg 93%

Tomorrow, 21 April, Wednesday

Time Temperature Precipitation Wind Pressure Humidity
00:00 +7°C° 0 mm 4 mps 737 mmHg 93%
01:00 +7°C° 0 mm 4 mps 737 mmHg 94%
02:00 +7°C° 0 mm 4 mps 738 mmHg 94%
03:00 +7°C° 0.1 mm 4 mps 738 mmHg 94%
04:00 +7°C° 0.1 mm 4 mps 739 mmHg 93%
05:00 +6°C° 0.1 mm 5 mps 739 mmHg 92%
06:00 +7°C° 0 mm 5 mps 740 mmHg 86%
07:00 +7°C° 0 mm 5 mps 741 mmHg 79%
08:00 +8°C° 0 mm 5 mps 741 mmHg 73%
09:00 +9°C° 0 mm 6 mps 742 mmHg 67%
10:00 +10°C° 0 mm 6 mps 742 mmHg 60%
11:00 +11°C° 0 mm 6 mps 743 mmHg 54%
12:00 +12°C° 0.1 mm 5 mps 743 mmHg 55%
13:00 +12°C° 0.1 mm 5 mps 743 mmHg 56%
14:00 +12°C° 0.1 mm 5 mps 743 mmHg 57%
15:00 +12°C° 0.3 mm 5 mps 743 mmHg 60%
16:00 +11°C° 0.3 mm 4 mps 743 mmHg 63%
17:00 +11°C° 0.3 mm 4 mps 744 mmHg 66%
18:00 +10°C° 0.1 mm 4 mps 744 mmHg 70%
19:00 +9°C° 0.1 mm 3 mps 744 mmHg 74%
20:00 +8°C° 0.1 mm 3 mps 745 mmHg 78%
21:00 +8°C° 0 mm 3 mps 745 mmHg 80%
22:00 +7°C° 0 mm 3 mps 745 mmHg 81%
23:00 +7°C° 0 mm 3 mps 745 mmHg 83%

Day after tomorrow, 22 April, Thursday

Time Temperature Precipitation Wind Pressure Humidity
00:00 +7°C° 0 mm 3 mps 745 mmHg 85%
01:00 +7°C° 0 mm 3 mps 745 mmHg 86%
02:00 +5°C° 0 mm 3 mps 745 mmHg 88%
03:00 +5°C° 0 mm 3 mps 746 mmHg 89%
04:00 +5°C° 0 mm 3 mps 746 mmHg 89%
05:00 +5°C° 0 mm 3 mps 746 mmHg 90%
06:00 +8°C° 0 mm 3 mps 747 mmHg 84%
07:00 +8°C° 0 mm 4 mps 747 mmHg 78%
08:00 +11°C° 0 mm 4 mps 747 mmHg 72%
09:00 +12°C° 0.1 mm 5 mps 747 mmHg 66%
10:00 +14°C° 0.1 mm 5 mps 748 mmHg 60%
11:00 +15°C° 0.1 mm 5 mps 748 mmHg 54%
12:00 +15°C° 0.2 mm 5 mps 748 mmHg 51%
13:00 +16°C° 0.2 mm 5 mps 747 mmHg 49%
14:00 +16°C° 0.2 mm 5 mps 747 mmHg 47%
15:00 +17°C° 0 mm 4 mps 748 mmHg 50%
16:00 +15°C° 0 mm 4 mps 748 mmHg 52%
17:00 +15°C° 0 mm 4 mps 748 mmHg 55%
18:00 +14°C° 0 mm 3 mps 748 mmHg 60%
19:00 +13°C° 0 mm 3 mps 748 mmHg 65%
20:00 +11°C° 0 mm 3 mps 748 mmHg 70%
21:00 +11°C° 0 mm 3 mps 748 mmHg 70%
22:00 +10°C° 0 mm 4 mps 748 mmHg 71%
23:00 +10°C° 0 mm 4 mps 748 mmHg 71%

23 April, Friday

Time Temperature Precipitation Wind Pressure Humidity
00:00 +9°C° 0 mm 3 mps 748 mmHg 74%
01:00 +9°C° 0 mm 3 mps 748 mmHg 76%
02:00 +9°C° 0 mm 3 mps 748 mmHg 78%
03:00 +8°C° 0 mm 3 mps 748 mmHg 81%
04:00 +8°C° 0 mm 3 mps 748 mmHg 83%
05:00 +7°C° 0 mm 3 mps 748 mmHg 85%
06:00 +8°C° 0 mm 4 mps 748 mmHg 78%
07:00 +10°C° 0 mm 5 mps 748 mmHg 70%
08:00 +13°C° 0 mm 5 mps 748 mmHg 63%
09:00 +14°C° 0 mm 6 mps 748 mmHg 58%
10:00 +15°C° 0 mm 6 mps 748 mmHg 54%
11:00 +16°C° 0 mm 7 mps 748 mmHg 49%
12:00 +16°C° 0 mm 6 mps 748 mmHg 49%
13:00 +16°C° 0 mm 6 mps 747 mmHg 48%
14:00 +17°C° 0 mm 6 mps 747 mmHg 47%
15:00 +16°C° 0 mm 6 mps 747 mmHg 50%
16:00 +15°C° 0 mm 5 mps 746 mmHg 54%
17:00 +15°C° 0 mm 5 mps 746 mmHg 57%
18:00 +14°C° 0 mm 5 mps 746 mmHg 58%
19:00 +13°C° 0 mm 5 mps 746 mmHg 59%
20:00 +13°C° 0 mm 5 mps 746 mmHg 60%
21:00 +12°C° 0.1 mm 5 mps 745 mmHg 64%
22:00 +11°C° 0.1 mm 6 mps 745 mmHg 67%
23:00 +10°C° 0.1 mm 6 mps 745 mmHg 71%

24 April, Saturday

Time Temperature Precipitation Wind Pressure Humidity
00:00 +9°C° 0 mm 6 mps 745 mmHg 74%
01:00 +8°C° 0 mm 5 mps 744 mmHg 78%
02:00 +8°C° 0 mm 5 mps 744 mmHg 81%
03:00 +6°C° 0.6 mm 5 mps 744 mmHg 86%
04:00 +3°C° 0.6 mm 5 mps 744 mmHg 90%
05:00 +1°C° 0.6 mm 6 mps 744 mmHg 94%
06:00 +2°C° 0.5 mm 5 mps 745 mmHg 89%
07:00 +3°C° 0.5 mm 5 mps 745 mmHg 85%
08:00 +5°C° 0.5 mm 5 mps 745 mmHg 80%
09:00 +6°C° 0.2 mm 5 mps 745 mmHg 72%
10:00 +7°C° 0.2 mm 6 mps 745 mmHg 64%
11:00 +8°C° 0.2 mm 7 mps 745 mmHg 56%
12:00 +7°C° 0.2 mm 8 mps 745 mmHg 52%
13:00 +7°C° 0.2 mm 8 mps 745 mmHg 49%
14:00 +6°C° 0.2 mm 9 mps 745 mmHg 46%
15:00 +6°C° 0 mm 8 mps 745 mmHg 50%
16:00 +5°C° 0 mm 8 mps 746 mmHg 54%
17:00 +4°C° 0 mm 7 mps 746 mmHg 58%
18:00 +4°C° 0 mm 7 mps 747 mmHg 60%
19:00 +3°C° 0 mm 6 mps 747 mmHg 62%
20:00 +2°C° 0 mm 5 mps 747 mmHg 63%
21:00 +1°C° 0 mm 5 mps 748 mmHg 66%
22:00 +1°C° 0 mm 4 mps 748 mmHg 69%
23:00 0°C° 0 mm 4 mps 748 mmHg 71%

25 April, Sunday

Time Temperature Precipitation Wind Pressure Humidity
00:00 0°C° 0 mm 4 mps 748 mmHg 71%
01:00 +1°C° 0 mm 3 mps 748 mmHg 70%
02:00 +1°C° 0 mm 3 mps 748 mmHg 70%
03:00 0°C° 0 mm 3 mps 748 mmHg 71%
04:00 0°C° 0 mm 3 mps 748 mmHg 73%
05:00 0°C° 0 mm 3 mps 747 mmHg 75%
06:00 0°C° 0.3 mm 4 mps 747 mmHg 80%
07:00 +1°C° 0.3 mm 5 mps 747 mmHg 86%
08:00 +2°C° 0.3 mm 6 mps 747 mmHg 92%
09:00 +3°C° 0.3 mm 7 mps 746 mmHg 85%
10:00 +5°C° 0.3 mm 8 mps 746 mmHg 78%
11:00 +6°C° 0.3 mm 9 mps 746 mmHg 72%
12:00 +6°C° 0.7 mm 8 mps 746 mmHg 75%
13:00 +6°C° 0.7 mm 8 mps 745 mmHg 77%
14:00 +5°C° 0.7 mm 7 mps 745 mmHg 80%
15:00 +5°C° 0.2 mm 7 mps 746 mmHg 77%
16:00 +5°C° 0.2 mm 6 mps 746 mmHg 74%
17:00 +4°C° 0.2 mm 6 mps 746 mmHg 70%
18:00 +3°C° 0 mm 5 mps 746 mmHg 72%
19:00 +3°C° 0 mm 4 mps 747 mmHg 75%
20:00 +2°C° 0 mm 3 mps 747 mmHg 77%
21:00 +2°C° 0 mm 3 mps 747 mmHg 78%
22:00 +1°C° 0 mm 3 mps 747 mmHg 78%
23:00 +1°C° 0 mm 3 mps 747 mmHg 79%
Show more